TimeCDT,TemperatureF,Dew PointF,Humidity,Sea Level PressureIn,VisibilityMPH,Wind Direction,Wind SpeedMPH,Gust SpeedMPH,PrecipitationIn,Events,Conditions,WindDirDegrees,DateUTC
12:30 AM,57.2,55.4,94,29.88,4.0,North,5.8,-,N/A,,Overcast,350,2012-10-03 05:30:00
12:50 AM,57.2,57.2,100,29.88,2.5,NW,4.6,-,0.01,Rain,Light Rain,320,2012-10-03 05:50:00
12:51 AM,57.9,57.0,97,29.87,2.5,NW,4.6,-,0.01,Rain,Light Rain,320,2012-10-03 05:51:00
1:02 AM,57.2,57.2,100,29.88,3.0,NNW,5.8,-,0.01,Rain,Light Rain,330,2012-10-03 06:02:00
1:16 AM,57.2,57.2,100,29.88,2.5,NW,4.6,-,0.01,Rain,Light Rain,320,2012-10-03 06:16:00
1:54 AM,57.0,57.0,100,29.89,2.5,WNW,6.9,-,0.04,Rain,Light Rain,300,2012-10-03 06:54:00
2:01 AM,57.2,55.4,94,29.89,3.0,WNW,8.1,-,0.00,Rain,Light Rain,300,2012-10-03 07:01:00
2:24 AM,57.2,55.4,94,29.90,2.5,WNW,5.8,-,0.01,Rain,Light Rain,290,2012-10-03 07:24:00
2:41 AM,57.2,55.4,94,29.89,2.5,WNW,6.9,-,0.02,Rain,Light Rain,300,2012-10-03 07:41:00
2:50 AM,57.2,55.4,94,29.89,3.0,NW,8.1,-,0.03,Rain,Light Rain,310,2012-10-03 07:50:00
2:54 AM,57.0,55.9,96,29.89,3.0,WNW,8.1,-,0.03,Rain,Light Rain,300,2012-10-03 07:54:00
3:54 AM,57.0,55.9,96,29.90,2.5,WNW,4.6,-,0.03,Rain,Light Rain,300,2012-10-03 08:54:00
4:08 AM,57.2,55.4,94,29.91,3.0,WNW,5.8,-,0.01,Rain,Light Rain,290,2012-10-03 09:08:00
4:35 AM,57.2,55.4,94,29.92,3.0,WNW,8.1,-,0.02,Rain,Light Rain,300,2012-10-03 09:35:00
4:54 AM,57.0,55.9,96,29.92,4.0,WNW,8.1,-,0.03,Rain,Light Rain,300,2012-10-03 09:54:00
5:24 AM,57.2,55.4,94,29.94,3.0,West,6.9,-,0.01,Rain,Light Rain,280,2012-10-03 10:24:00
5:54 AM,57.0,55.9,96,29.95,3.0,West,6.9,-,0.03,Rain,Light Rain,280,2012-10-03 10:54:00
6:25 AM,57.2,55.4,94,29.97,4.0,West,6.9,-,0.01,Rain,Light Rain,270,2012-10-03 11:25:00
6:54 AM,57.0,55.9,96,29.97,6.0,West,4.6,-,0.02,,Overcast,270,2012-10-03 11:54:00
7:03 AM,57.2,55.4,94,29.97,6.0,West,6.9,-,0.00,Rain,Light Rain,280,2012-10-03 12:03:00
7:24 AM,57.2,55.4,94,29.98,6.0,West,4.6,-,0.00,,Overcast,260,2012-10-03 12:24:00
7:34 AM,57.2,55.4,94,29.98,7.0,WSW,5.8,-,0.00,,Overcast,250,2012-10-03 12:34:00
7:54 AM,57.0,55.9,96,29.98,8.0,West,5.8,-,0.00,,Overcast,260,2012-10-03 12:54:00
8:06 AM,57.2,57.2,100,29.98,7.0,WSW,4.6,-,N/A,,Overcast,240,2012-10-03 13:06:00
8:54 AM,57.9,55.9,93,29.98,8.0,SW,5.8,-,N/A,,Overcast,220,2012-10-03 13:54:00
9:54 AM,59.0,57.0,93,30.01,7.0,SSE,4.6,-,N/A,,Overcast,150,2012-10-03 14:54:00
10:54 AM,62.1,57.9,86,30.00,10.0,South,5.8,-,N/A,,Overcast,190,2012-10-03 15:54:00
11:54 AM,64.0,57.0,78,30.00,10.0,South,8.1,-,N/A,,Overcast,190,2012-10-03 16:54:00
12:54 PM,66.9,57.0,70,29.99,10.0,SSW,10.4,-,N/A,,Overcast,210,2012-10-03 17:54:00
1:54 PM,70.0,54.0,57,29.97,10.0,SW,6.9,-,N/A,,Overcast,230,2012-10-03 18:54:00
2:54 PM,72.0,53.1,51,29.96,10.0,West,9.2,-,N/A,,Mostly Cloudy,280,2012-10-03 19:54:00
3:54 PM,72.0,52.0,49,29.96,10.0,WNW,5.8,-,N/A,,Clear,290,2012-10-03 20:54:00
4:54 PM,71.1,51.1,49,29.98,10.0,Calm,Calm,-,N/A,,Scattered Clouds,0,2012-10-03 21:54:00
5:54 PM,69.1,54.0,58,29.99,10.0,West,4.6,-,N/A,,Overcast,260,2012-10-03 22:54:00
6:54 PM,64.0,53.1,67,30.00,10.0,Calm,Calm,-,N/A,,Overcast,0,2012-10-03 23:54:00
7:54 PM,62.1,55.0,78,30.02,10.0,Calm,Calm,-,N/A,,Overcast,0,2012-10-04 00:54:00
8:54 PM,61.0,55.0,81,30.04,10.0,Calm,Calm,-,N/A,,Clear,0,2012-10-04 01:54:00
9:54 PM,57.0,54.0,89,30.05,10.0,Calm,Calm,-,N/A,,Overcast,0,2012-10-04 02:54:00
10:54 PM,60.1,54.0,80,30.06,10.0,SW,6.9,-,N/A,,Overcast,220,2012-10-04 03:54:00
11:54 PM,61.0,54.0,78,30.07,10.0,SW,8.1,-,N/A,,Mostly Cloudy,220,2012-10-04 04:54:00